Weather History for KMRB - January, 2015

Change the Weather History Date:

Saturday, January 24, 2015

  Actual Average Record
Temperature  
Mean Temperature 38 °F 31 °F  
Max Temperature 42 °F 40 °F 74 °F (1967)
Min Temperature 34 °F 22 °F -4 °F (1963)
Degree Days  
Heating Degree Days 27 34  
Month to date heating degree days 819 816  
Since 1 July heating degree days 2588 2842  
Cooling Degree Days 0 0  
Month to date cooling degree days 0 0  
Year to date cooling degree days 0 0  
Moisture  
Dew Point 30 °F    
Average Humidity 73    
Maximum Humidity 96    
Minimum Humidity 50    
Precipitation  
Precipitation 0.44 in 0.08 in 0.94 in (1979)
Month to date precipitation 1.90 1.86  
Year to date precipitation 1.90 1.86  
Sea Level Pressure  
Sea Level Pressure 29.66 in    
Wind  
Wind Speed 9 mph (NNW)    
Max Wind Speed 26 mph    
Max Gust Speed 33 mph    
Visibility 5 miles    
Events Rain , Snow    
T = Trace of Precipitation, MM = Missing Value Source: NWS Daily Summary

Daily Weather History Graph

Daily Weather History Graph

Search for Another Location

Airport or City:

Trip Planner

Search our weather history database for the weather conditions in past years. The results will help you decide how hot, cold, wet, or windy it might be!

Date:

Astronomy

Jan. 24, 2015 Rise Set
Actual Time 7:25 AM EST 5:22 PM EST
Civil Twilight 6:56 AM EST 5:51 PM EST
Nautical Twilight 6:24 AM EST 6:24 PM EST
Astronomical Twilight 5:52 AM EST 6:56 PM EST
Moon 9:55 AM EST (1/24) 10:36 PM EST (1/24)
Length of Visible Light 10h 54m
Length of Day
9h 56m
Waxing Crescent, 23% of the Moon is Illuminated
Jan 24
Waxing Crescent
Jan 26
First Quarter
Feb 3
Full
Feb 11
Last Quarter
Feb 18
New

Hourly Weather History & Observations

Time (EST) Temp. Windchill Dew Point Humidity Pressure Visibility Wind Dir Wind Speed Gust Speed Precip Events Conditions
12:03 AM 34.0 °F 31.0 °F 30.9 °F 89% 29.85 in 0.8 mi NNE 3.5 mph - 0.01 in Snow Light Snow
12:18 AM 34.0 °F 31.0 °F 30.9 °F 89% 29.83 in 1.2 mi NNE 3.5 mph - 0.02 in Rain Rain
12:25 AM 34.0 °F 31.0 °F 30.9 °F 89% 29.82 in 1.0 mi NNE 3.5 mph - 0.04 in Rain Light Freezing Rain
12:42 AM 34.0 °F 29.8 °F 30.9 °F 89% 29.81 in 1.8 mi NNW 4.6 mph - 0.09 in Rain Light Freezing Rain
12:53 AM 34.0 °F 29.8 °F 30.9 °F 89% 29.81 in 1.2 mi North 4.6 mph - 0.12 in Rain Rain
1:08 AM 34.0 °F 29.8 °F 30.9 °F 89% 29.78 in 1.2 mi North 4.6 mph - 0.03 in Rain Light Rain
1:26 AM 34.0 °F 28.8 °F 30.9 °F 89% 29.77 in 1.8 mi NNE 5.8 mph - 0.07 in Rain Light Rain
1:29 AM 34.0 °F 29.8 °F 30.9 °F 89% 29.76 in 2.0 mi NNE 4.6 mph - 0.08 in Rain Rain
1:49 AM 33.8 °F 30.8 °F 32.0 °F 93% 29.76 in 3.0 mi East 3.5 mph - 0.11 in Rain Light Rain
1:53 AM 34.0 °F 31.0 °F 30.9 °F 89% 29.77 in 2.5 mi East 3.5 mph - 0.12 in Rain Light Rain
2:04 AM 34.0 °F - 30.9 °F 89% 29.75 in 2.5 mi Calm Calm - 0.01 in Rain Light Freezing Rain
2:48 AM 33.8 °F - 30.2 °F 87% 29.72 in 3.0 mi Calm Calm - 0.06 in Rain Light Freezing Rain
2:53 AM 34.0 °F - 30.9 °F 89% 29.73 in 3.0 mi Calm Calm - 0.07 in Rain Light Freezing Rain
3:10 AM 34.0 °F - 30.9 °F 89% 29.70 in 4.0 mi Calm Calm - 0.01 in Rain Light Rain
3:17 AM 34.0 °F - 32.0 °F 92% 29.71 in 4.0 mi Calm Calm - 0.02 in Rain Light Freezing Rain
3:35 AM 34.0 °F 31.0 °F 30.9 °F 89% 29.68 in 2.0 mi North 3.5 mph - 0.03 in   Overcast
3:43 AM 34.0 °F 29.8 °F 30.9 °F 89% 29.67 in 1.5 mi North 4.6 mph - 0.03 in Rain Light Freezing Rain
3:53 AM 34.0 °F 31.0 °F 30.9 °F 89% 29.69 in 2.5 mi North 3.5 mph - 0.04 in Rain Light Freezing Rain
3:56 AM 34.0 °F 31.0 °F 30.9 °F 89% 29.68 in 3.0 mi North 3.5 mph - 0.00 in   Overcast
4:18 AM 34.0 °F - 30.9 °F 89% 29.66 in 5.0 mi Calm Calm - 0.01 in   Overcast
4:48 AM 33.8 °F 30.8 °F 30.2 °F 87% 29.65 in 4.0 mi North 3.5 mph - 0.03 in Rain Light Freezing Rain
4:49 AM 33.8 °F 30.8 °F 30.2 °F 87% 29.66 in 4.0 mi NNE 3.5 mph - 0.03 in   Overcast
4:53 AM 34.0 °F - 30.9 °F 89% 29.67 in 4.0 mi Calm Calm - 0.03 in   Overcast
5:00 AM 34.0 °F - 32.0 °F 92% 29.68 in 4.0 mi Calm Calm - 0.00 in Rain Light Freezing Rain
5:11 AM 34.0 °F - 30.9 °F 89% 29.65 in 3.0 mi Calm Calm - 0.01 in Rain Light Freezing Rain
5:21 AM 34.0 °F 28.0 °F 30.0 °F 85% 29.64 in 2.0 mi NNW 6.9 mph - 0.01 in Rain Light Freezing Rain
5:32 AM 34.0 °F 28.8 °F 30.9 °F 89% 29.62 in 1.8 mi North 5.8 mph - 0.02 in   Overcast
5:42 AM 34.0 °F 28.8 °F 30.9 °F 89% 29.63 in 1.8 mi NNW 5.8 mph - 0.02 in   Overcast
5:53 AM 34.0 °F 28.8 °F 30.9 °F 89% 29.65 in 2.0 mi NW 5.8 mph - 0.03 in   Overcast
6:12 AM 34.0 °F 27.2 °F 30.9 °F 89% 29.60 in 2.5 mi NNE 8.1 mph - 0.01 in   Overcast
6:22 AM 34.0 °F 28.8 °F 30.9 °F 89% 29.62 in 2.5 mi North 5.8 mph - 0.01 in   Overcast
6:27 AM 34.0 °F 28.8 °F 30.9 °F 89% 29.62 in 3.0 mi North 5.8 mph - 0.01 in   Overcast
6:53 AM 34.0 °F 31.0 °F 32.0 °F 92% 29.63 in 3.0 mi North 3.5 mph - 0.01 in   Overcast
7:02 AM 34.0 °F 29.8 °F 30.9 °F 89% 29.61 in 3.0 mi North 4.6 mph - 0.01 in   Overcast
7:53 AM 34.0 °F 29.8 °F 30.9 °F 89% 29.63 in 5.0 mi NW 4.6 mph - 0.03 in   Overcast
8:53 AM 35.1 °F 32.2 °F 30.9 °F 85% 29.58 in 4.0 mi NNE 3.5 mph - N/A   Overcast
9:09 AM 35.1 °F - 32.0 °F 89% 29.57 in 4.0 mi Calm Calm - N/A   Overcast
9:31 AM 35.1 °F 29.3 °F 30.0 °F 82% 29.56 in 10.0 mi North 6.9 mph - N/A   Overcast
9:53 AM 36.0 °F 32.1 °F 30.9 °F 82% 29.58 in 10.0 mi NNE 4.6 mph - N/A   Overcast
10:53 AM 37.0 °F - 32.0 °F 82% 29.58 in 10.0 mi Calm Calm - N/A   Overcast
11:50 AM 37.4 °F 30.8 °F 30.2 °F 75% 29.53 in 10.0 mi NW 9.2 mph - N/A   Overcast
11:53 AM 37.0 °F 31.0 °F 30.9 °F 79% 29.54 in 10.0 mi NW 8.1 mph - N/A   Overcast
12:53 PM 39.0 °F 35.7 °F 32.0 °F 76% 29.51 in 10.0 mi NNW 4.6 mph - N/A   Overcast
1:53 PM 39.9 °F 35.1 °F 28.9 °F 65% 29.49 in 10.0 mi NW 6.9 mph - N/A   Mostly Cloudy
2:53 PM 42.1 °F 34.2 °F 28.0 °F 58% 29.48 in 10.0 mi WNW 16.1 mph 27.6 mph N/A   Clear
3:53 PM 41.0 °F 32.2 °F 24.1 °F 51% 29.52 in 10.0 mi West 18.4 mph 27.6 mph N/A   Clear
4:53 PM 39.9 °F 31.4 °F 23.0 °F 51% 29.55 in 10.0 mi WNW 16.1 mph 24.2 mph N/A   Partly Cloudy
5:53 PM 39.0 °F 30.3 °F 23.0 °F 53% 29.57 in 10.0 mi West 16.1 mph 23.0 mph N/A   Overcast
6:53 PM 37.0 °F 28.1 °F 24.1 °F 59% 29.60 in 10.0 mi West 15.0 mph - N/A   Clear
7:53 PM 37.0 °F 27.7 °F 25.0 °F 62% 29.61 in 10.0 mi West 16.1 mph 20.7 mph N/A   Scattered Clouds
8:53 PM 37.9 °F 28.9 °F 25.0 °F 60% 29.63 in 10.0 mi West 16.1 mph - N/A   Overcast
9:53 PM 37.9 °F 28.5 °F 25.0 °F 60% 29.64 in 10.0 mi WNW 17.3 mph 25.3 mph N/A   Overcast
10:53 PM 37.9 °F 27.1 °F 25.0 °F 60% 29.66 in 10.0 mi WNW 23.0 mph 32.2 mph N/A   Overcast
11:53 PM 37.9 °F 28.2 °F 26.1 °F 62% 29.68 in 10.0 mi West 18.4 mph - N/A   Overcast